Weather in Suzhou

China     31°18′31″N   120°35′51″E
temp.,
°C
wind,
m/s
gust,
m/s
humid.,
%
clouds,
%
prec.,
mm/h
press.,
hPa
HPBL,
m
19 april, mon
mon1923:00+11se4856100 0.0 1020221
02:00+10ese3761100 0.0 1019176
05:00+10ese366956 0.0 1018128
08:00+15se47530 0.0 1019402
11:00+20se34430 0.0 1018833
14:00+22se45370 0.0 1016996
17:00+19ese57480 0.0 1016560
20:00+14ese511650 0.0 1018309
20 april, tue
tue2023:00+12ese512690 0.0 1018307
02:00+12ese512710 0.0 1017300
05:00+12ese5127699 0.0 1017329
08:00+14ese61273100 0.0 1018459
11:00+19se8115090 0.0 1018687
14:00+18ese8115651 0.0 1017623
17:00+17ese71364100 0.0 1017471
20:00+15ese7147682 0.0 1018463
21 april, wed
wed2123:00+15ese71680100 0.0 1018550
02:00+14ese7168284 0.0 1016567
05:00+15se7158480 0.0 1016545
08:00+17se8147781 0.0 1017632
11:00+22se810585 0.0 1016912
14:00+24se79546 0.0 10141102
17:00+21ese712646 0.0 1013630
20:00+18ese81575100 0.0 1014471
22 april, thu
thu2223:00+17se7147796 0.0 1014469
02:00+17se61280100 0.0 1012366
05:00+16se5128495 0.0 1011367
08:00+18se5880100 0.0 1012350
11:00+22s4663100 0.1 1011601
14:00+23wsw3359100 0.1 1010690
17:00+19nw3488100 1.0 1010151
20:00+19ne2392100 1.7 1011110
23 april, fri
fri2323:00+18nne229628 0.0 101124
02:00+18nnw359698 0.0 1011143
05:00+17nw3798100 0.0 1011262
08:00+18nnw4690100 0.1 1013331
11:00+20nw457776 0.0 1013733
14:00+21nnw347186 0.1 1011856
17:00+20n4675100 0.1 1011513
20:00+18nne4781100 0.1 1014440